Location: Bydgoszcz
(53.1640°N, 17.9142°E)
Time: 17:55:37
(UTC+02:00)

PCSat - Pass Details

Date: 25 April 2024
Orbit: 783 x 792 km, 67.1° (Epoch: 18 May)

Event Time Altitude Azimuth Distance (km) Brightness Sun altitude
Rises 23:03:42 0° 290° (WNW) 3,293 13.5 -19.7°
Reaches altitude 10° 23:06:50 10° 308° (NW) 2,366 13.0 -19.9°
Maximum altitude 23:10:40 19° 353° (N) 1,812 12.3 -20.2°
Drops below altitude 10° 23:14:31 10° 39° (NE) 2,370 12.4 -20.4°
Sets 23:17:40 0° 57° (ENE) 3,300 12.9 -20.6°
